TimeMST,TemperatureF,Dew PointF,Humidity,Sea Level PressureIn,VisibilityMPH,Wind Direction,Wind SpeedMPH,Gust SpeedMPH,PrecipitationIn,Events,Conditions,WindDirDegrees,DateUTC
12:15 AM,21.2,14.0,74,30.30,-9999.0,Calm,Calm,-,N/A,,Clear,0,2012-11-21 07:15:00
12:35 AM,19.4,14.0,80,30.29,-9999.0,Calm,Calm,-,N/A,,Clear,0,2012-11-21 07:35:00
12:54 AM,19.4,14.0,80,30.29,-9999.0,Calm,Calm,-,N/A,,Clear,0,2012-11-21 07:54:00
1:15 AM,19.4,14.0,80,30.30,-9999.0,Calm,Calm,-,N/A,,Clear,0,2012-11-21 08:15:00
1:35 AM,19.4,14.0,80,30.29,-9999.0,Calm,Calm,-,N/A,,Clear,0,2012-11-21 08:35:00
1:55 AM,19.4,12.2,74,30.29,-9999.0,Calm,Calm,-,N/A,,Clear,0,2012-11-21 08:55:00
2:15 AM,17.6,12.2,79,30.30,-9999.0,Calm,Calm,-,N/A,,Clear,0,2012-11-21 09:15:00
2:35 AM,17.6,14.0,86,30.30,-9999.0,Calm,Calm,-,N/A,,Unknown,0,2012-11-21 09:35:00
2:55 AM,17.6,14.0,86,30.29,-9999.0,Calm,Calm,-,N/A,,Unknown,0,2012-11-21 09:55:00
3:15 AM,17.6,12.2,79,30.29,-9999.0,Calm,Calm,-,N/A,,Clear,0,2012-11-21 10:15:00
3:35 AM,17.6,14.0,86,30.28,-9999.0,Calm,Calm,-,N/A,,Unknown,0,2012-11-21 10:35:00
3:55 AM,17.6,12.2,79,30.28,-9999.0,Calm,Calm,-,N/A,,Clear,0,2012-11-21 10:55:00
4:14 AM,17.6,12.2,79,30.28,-9999.0,Calm,Calm,-,N/A,,Clear,0,2012-11-21 11:14:00
4:35 AM,17.6,12.2,79,30.28,-9999.0,Calm,Calm,-,N/A,,Clear,0,2012-11-21 11:35:00
4:55 AM,17.6,12.2,79,30.27,-9999.0,Calm,Calm,-,N/A,,Clear,0,2012-11-21 11:55:00
5:15 AM,15.8,10.4,79,30.27,-9999.0,Calm,Calm,-,N/A,,Clear,0,2012-11-21 12:15:00
5:35 AM,14.0,10.4,86,30.27,-9999.0,Calm,Calm,-,N/A,,Unknown,0,2012-11-21 12:35:00
5:55 AM,14.0,10.4,86,30.26,-9999.0,Calm,Calm,-,N/A,,Clear,0,2012-11-21 12:55:00
6:14 AM,14.0,10.4,86,30.26,-9999.0,Calm,Calm,-,N/A,,Clear,0,2012-11-21 13:14:00
6:35 AM,14.0,10.4,86,30.26,-9999.0,Calm,Calm,-,N/A,,Unknown,0,2012-11-21 13:35:00
6:55 AM,14.0,10.4,86,30.26,-9999.0,Calm,Calm,-,N/A,,Clear,0,2012-11-21 13:55:00
7:15 AM,14.0,10.4,86,30.27,-9999.0,Calm,Calm,-,N/A,,Unknown,0,2012-11-21 14:15:00
7:35 AM,17.6,12.2,79,30.26,-9999.0,Calm,Calm,-,N/A,,Clear,0,2012-11-21 14:35:00
7:55 AM,17.6,12.2,79,30.26,-9999.0,Calm,Calm,-,N/A,,Clear,0,2012-11-21 14:55:00
8:15 AM,19.4,14.0,80,30.26,-9999.0,Calm,Calm,-,N/A,,Clear,0,2012-11-21 15:15:00
8:35 AM,21.2,14.0,74,30.26,-9999.0,Calm,Calm,-,N/A,,Clear,0,2012-11-21 15:35:00
8:55 AM,23.0,17.6,80,30.26,-9999.0,Calm,Calm,-,N/A,,Clear,0,2012-11-21 15:55:00
9:15 AM,28.4,19.4,69,30.25,-9999.0,Calm,Calm,-,N/A,,Clear,0,2012-11-21 16:15:00
9:34 AM,30.2,19.4,64,30.24,-9999.0,Calm,Calm,-,N/A,,Clear,0,2012-11-21 16:34:00
9:55 AM,32.0,17.6,55,30.24,-9999.0,Calm,Calm,-,N/A,,Clear,0,2012-11-21 16:55:00
10:15 AM,33.8,19.4,56,30.22,-9999.0,Calm,Calm,-,N/A,,Clear,0,2012-11-21 17:15:00
10:34 AM,33.8,17.6,52,30.21,-9999.0,Calm,Calm,-,N/A,,Clear,0,2012-11-21 17:34:00
10:55 AM,37.4,19.4,48,30.20,-9999.0,WSW,3.5,-,N/A,,Clear,250,2012-11-21 17:55:00
11:14 AM,37.4,17.6,45,30.18,-9999.0,Calm,Calm,-,N/A,,Clear,0,2012-11-21 18:14:00
11:35 AM,42.8,17.6,36,30.16,-9999.0,Calm,Calm,-,N/A,,Clear,0,2012-11-21 18:35:00
11:55 AM,46.4,17.6,32,30.15,-9999.0,Calm,Calm,-,N/A,,Clear,0,2012-11-21 18:55:00
12:15 PM,50.0,12.2,22,30.13,-9999.0,SSW,3.5,-,N/A,,Clear,210,2012-11-21 19:15:00
12:35 PM,51.8,8.6,18,30.12,-9999.0,Calm,Calm,-,N/A,,Clear,0,2012-11-21 19:35:00
12:55 PM,53.6,8.6,16,30.11,-9999.0,SW,12.7,18.4,N/A,,Clear,220,2012-11-21 19:55:00
1:15 PM,53.6,6.8,15,30.11,-9999.0,SW,11.5,18.4,N/A,,Clear,230,2012-11-21 20:15:00
1:35 PM,53.6,3.2,13,30.11,-9999.0,SW,9.2,-,N/A,,Clear,220,2012-11-21 20:35:00
1:55 PM,55.4,3.2,12,30.10,-9999.0,WSW,5.8,17.3,N/A,,Clear,240,2012-11-21 20:55:00
2:15 PM,53.6,1.4,12,30.10,-9999.0,SW,9.2,16.1,N/A,,Clear,230,2012-11-21 21:15:00
2:35 PM,55.4,-0.4,10,30.10,-9999.0,WSW,10.4,16.1,N/A,,Clear,250,2012-11-21 21:35:00
2:55 PM,55.4,1.4,11,30.10,-9999.0,WSW,11.5,20.7,N/A,,Clear,240,2012-11-21 21:55:00
3:15 PM,53.6,-0.4,11,30.09,-9999.0,WSW,9.2,17.3,N/A,,Clear,240,2012-11-21 22:15:00
3:35 PM,53.6,1.4,12,30.09,-9999.0,SW,9.2,-,N/A,,Clear,220,2012-11-21 22:35:00
3:55 PM,53.6,1.4,12,30.09,-9999.0,SW,12.7,19.6,N/A,,Clear,230,2012-11-21 22:55:00
4:15 PM,51.8,1.4,13,30.09,-9999.0,SW,10.4,-,N/A,,Clear,230,2012-11-21 23:15:00
4:35 PM,50.0,3.2,15,30.09,-9999.0,South,6.9,-,N/A,,Clear,190,2012-11-21 23:35:00
4:55 PM,50.0,3.2,15,30.09,-9999.0,SSW,5.8,-,N/A,,Clear,200,2012-11-21 23:55:00
5:15 PM,50.0,5.0,16,30.09,-9999.0,ESE,4.6,-,N/A,,Clear,110,2012-11-22 00:15:00
5:35 PM,46.4,5.0,18,30.10,-9999.0,SSW,4.6,-,N/A,,Clear,200,2012-11-22 00:35:00
5:55 PM,46.4,5.0,18,30.11,-9999.0,SE,3.5,-,N/A,,Clear,140,2012-11-22 00:55:00
6:15 PM,46.4,5.0,18,30.11,-9999.0,SE,3.5,-,N/A,,Clear,130,2012-11-22 01:15:00
6:35 PM,41.0,6.8,24,30.10,-9999.0,Calm,Calm,-,N/A,,Clear,0,2012-11-22 01:35:00
6:55 PM,41.0,8.6,26,30.10,-9999.0,South,8.1,-,N/A,,Clear,170,2012-11-22 01:55:00
7:15 PM,41.0,8.6,26,30.10,-9999.0,SE,4.6,-,N/A,,Clear,140,2012-11-22 02:15:00
7:35 PM,41.0,8.6,26,30.09,-9999.0,SSE,9.2,-,N/A,,Clear,150,2012-11-22 02:35:00
7:54 PM,41.0,8.6,26,30.09,-9999.0,SSE,5.8,-,N/A,,Clear,150,2012-11-22 02:54:00
8:15 PM,41.0,8.6,26,30.09,-9999.0,SE,5.8,-,N/A,,Clear,140,2012-11-22 03:15:00
8:35 PM,37.4,10.4,33,30.08,-9999.0,ESE,10.4,-,N/A,,Clear,120,2012-11-22 03:35:00
8:55 PM,41.0,10.4,29,30.09,-9999.0,ESE,9.2,-,N/A,,Clear,110,2012-11-22 03:55:00
9:15 PM,41.0,10.4,29,30.08,-9999.0,SE,4.6,-,N/A,,Clear,140,2012-11-22 04:15:00
9:35 PM,41.0,8.6,26,30.09,-9999.0,East,5.8,-,N/A,,Clear,100,2012-11-22 04:35:00
9:55 PM,37.4,10.4,33,30.09,-9999.0,East,5.8,-,N/A,,Clear,80,2012-11-22 04:55:00
10:15 PM,35.6,10.4,35,30.09,-9999.0,Calm,Calm,-,N/A,,Clear,0,2012-11-22 05:15:00
10:35 PM,33.8,14.0,44,30.10,-9999.0,East,3.5,-,N/A,,Clear,90,2012-11-22 05:35:00
10:55 PM,33.8,12.2,41,30.10,-9999.0,SE,6.9,-,N/A,,Clear,130,2012-11-22 05:55:00
11:15 PM,39.2,10.4,31,30.09,-9999.0,East,4.6,-,N/A,,Clear,90,2012-11-22 06:15:00
11:35 PM,33.8,12.2,41,30.10,-9999.0,Calm,Calm,-,N/A,,Clear,0,2012-11-22 06:35:00
11:55 PM,35.6,12.2,38,30.10,-9999.0,Calm,Calm,-,N/A,,Clear,0,2012-11-22 06:55:00